Dallas/Ft Worth, TX

9:11 PM CST on November 21, 2019 (GMT -0600)
Dallas-Fort Worth International

Weather History for KDFW - September, 2019

Change the Weather History Date:

Thursday, September 26, 2019

  Actual Average Record
Temperature  
Mean Temperature 86 °F 74 °F  
Max Temperature 95 °F 85 °F 100 °F (1977)
Min Temperature 77 °F 64 °F 45 °F (1942)
Degree Days  
Heating Degree Days 0 0  
Month to date heating degree days 0 0  
Since 1 July heating degree days 0 0  
Cooling Degree Days 21 10  
Month to date cooling degree days 540 360  
Year to date cooling degree days 2742 2542  
Growing Degree Days 36 (Base 50)    
Moisture  
Dew Point 67 °F    
Average Humidity 57    
Maximum Humidity 74    
Minimum Humidity 40    
Precipitation  
Precipitation 0.00 in 0.08 in 2.50 in (1973)
Month to date precipitation T 2.25  
Year to date precipitation 27.13 26.36  
Sea Level Pressure  
Sea Level Pressure 29.84 in    
Wind  
Wind Speed 10 mph ()    
Max Wind Speed 18 mph    
Max Gust Speed 23 mph    
Visibility 10.0 miles    
Events      
T = Trace of Precipitation, MM = Missing Value Source: Averaged Metar Reports

Daily Weather History Graph

Daily Weather History Graph

Search for Another Location

Airport or City:

Astronomy

Sep. 26, 2019 Rise Set
Actual Time 7:18 AM CDT 7:19 PM CDT
Civil Twilight 6:54 AM CDT 7:44 PM CDT
Nautical Twilight 6:25 AM CDT 8:12 PM CDT
Astronomical Twilight 5:56 AM CDT 8:41 PM CDT
Moon 4:40 AM CDT (9/26) 6:22 PM CDT (9/26)
Length of Visible Light 12h 50m
Length of Day
12h 00m
Waning Crescent, 6% of the Moon is Illuminated
Sep 26
Waning Crescent
Sep 28
New
Oct 5
First Quarter
Oct 13
Full
Oct 21
Last Quarter

Hourly Weather History & Observations

Time (CDT) Temp. Heat Index Dew Point Humidity Pressure Visibility Wind Dir Wind Speed Gust Speed Precip Events Conditions
12:53 AM 82.9 °F 84.6 °F 64.9 °F 54% 29.80 in 10.0 mi South 12.7 mph - N/A   Partly Cloudy
1:53 AM 82.0 °F 83.8 °F 64.9 °F 56% 29.79 in 10.0 mi South 16.1 mph - N/A   Partly Cloudy
2:53 AM 81.0 °F 82.7 °F 64.9 °F 58% 29.81 in 10.0 mi South 17.3 mph 23.0 mph N/A   Partly Cloudy
3:53 AM 80.1 °F 82.1 °F 66.0 °F 62% 29.81 in 10.0 mi South 11.5 mph - N/A   Mostly Cloudy
4:53 AM 79.0 °F - 66.9 °F 66% 29.84 in 10.0 mi South 6.9 mph - N/A   Scattered Clouds
5:53 AM 78.1 °F - 68.0 °F 71% 29.85 in 10.0 mi South 10.4 mph - N/A   Partly Cloudy
6:53 AM 77.0 °F - 68.0 °F 74% 29.86 in 10.0 mi South 8.1 mph - N/A   Partly Cloudy
7:53 AM 77.0 °F - 68.0 °F 74% 29.87 in 10.0 mi SSE 6.9 mph - N/A   Partly Cloudy
8:53 AM 79.0 °F - 69.1 °F 72% 29.89 in 10.0 mi South 8.1 mph - N/A   Mostly Cloudy
9:23 AM 79.0 °F - 69.1 °F 72% 29.95 in 10.0 mi East 13.8 mph - N/A   Mostly Cloudy
9:53 AM 80.1 °F 83.2 °F 70.0 °F 71% 29.93 in 10.0 mi East 13.8 mph - N/A   Scattered Clouds
10:53 AM 82.9 °F 87.0 °F 70.0 °F 65% 29.93 in 10.0 mi East 12.7 mph - N/A   Scattered Clouds
11:53 AM 87.1 °F 92.0 °F 70.0 °F 57% 29.91 in 10.0 mi East 11.5 mph - N/A   Partly Cloudy
12:53 PM 90.0 °F 95.4 °F 70.0 °F 52% 29.90 in 10.0 mi ESE 12.7 mph 18.4 mph N/A   Mostly Cloudy
1:53 PM 91.0 °F 95.2 °F 68.0 °F 47% 29.86 in 10.0 mi South 8.1 mph - N/A   Partly Cloudy
2:53 PM 93.9 °F 98.6 °F 68.0 °F 43% 29.83 in 10.0 mi South 12.7 mph - N/A   Scattered Clouds
3:53 PM 93.9 °F 97.0 °F 66.0 °F 40% 29.80 in 10.0 mi SSE 9.2 mph - N/A   Scattered Clouds
4:53 PM 93.9 °F 97.0 °F 66.0 °F 40% 29.77 in 10.0 mi SSE 10.4 mph - N/A   Scattered Clouds
6:53 PM 91.0 °F 93.8 °F 66.0 °F 44% 29.76 in 10.0 mi SSE 11.5 mph - N/A   Partly Cloudy
7:53 PM 88.0 °F 90.3 °F 66.0 °F 48% 29.78 in 10.0 mi SSE 10.4 mph - N/A   Partly Cloudy
8:53 PM 86.0 °F 87.6 °F 64.9 °F 49% 29.79 in 10.0 mi SSE 9.2 mph - N/A   Partly Cloudy
9:53 PM 84.9 °F 87.1 °F 66.0 °F 53% 29.80 in 10.0 mi SSE 8.1 mph - N/A   Clear
10:53 PM 84.9 °F 87.1 °F 66.0 °F 53% 29.80 in 10.0 mi South 11.5 mph - N/A   Clear
11:53 PM 84.0 °F 86.3 °F 66.0 °F 55% 29.79 in 10.0 mi South 13.8 mph - N/A   Clear